| time (UTC) | temp C | wind direction | speed KPH | gust KPH | rain 1hr cm | rain 24hr cm | rain mn cm | humidity % | barometer mb |
| 20260507075807 | 10 | 326 | 0.0 | 4.8 | 0.00 | 1.24 | 0.03 | 65 | 1010.7 |
| 20260507075308 | 10 | 9 | 0.0 | 0.0 | 0.00 | 1.24 | 0.03 | 66 | 1010.6 |
| 20260507074802 | 10 | 10 | 0.0 | 0.0 | 0.00 | 1.24 | 0.03 | 66 | 1010.9 |
| 20260507074523 | 11 | 6 | 0.0 | 1.6 | 0.00 | 1.24 | 0.03 | 64 | 1010.5 |
| 20260507073756 | 11 | 301 | 0.0 | 1.6 | 0.00 | 1.24 | 0.03 | 67 | 1010.8 |
| 20260507073244 | 11 | 306 | 0.0 | 1.6 | 0.00 | 1.24 | 0.03 | 70 | 1010.7 |
| 20260507072743 | 11 | 17 | 0.0 | 4.8 | 0.00 | 1.24 | 0.03 | 65 | 1010.4 |
| 20260507072241 | 11 | 5 | 0.0 | 4.8 | 0.03 | 1.24 | 0.03 | 65 | 1010.6 |
| 20260507071742 | 11 | 320 | 0.0 | 3.2 | 0.03 | 1.24 | 0.03 | 67 | 1010.5 |
| 20260507071241 | 11 | 302 | 0.0 | 3.2 | 0.03 | 1.24 | 0.03 | 66 | 1010.7 |
| 20260507070742 | 11 | 316 | 0.0 | 1.6 | 0.03 | 1.24 | 0.03 | 69 | 1010.7 |
| 20260507070242 | 11 | 311 | 1.6 | 4.8 | 0.03 | 1.24 | 0.03 | 67 | 1010.8 |
| 20260507065742 | 11 | 330 | 0.0 | 4.8 | 0.03 | 1.24 | 0.03 | 67 | 1010.8 |
| 20260507065241 | 11 | 288 | 0.0 | 9.7 | 0.03 | 1.24 | 0.03 | 69 | 1010.8 |
| 20260507064742 | 11 | 279 | 1.6 | 9.7 | 0.03 | 1.24 | 0.03 | 69 | 1010.8 |
| 20260507064512 | 11 | 19 | 0.0 | 11.3 | 0.03 | 1.24 | 0.03 | 76 | 1010.7 |
| 20260507063742 | 11 | 7 | 1.6 | 11.3 | 0.03 | 1.24 | 0.03 | 76 | 1010.6 |
| 20260507063242 | 11 | 308 | 0.0 | 3.2 | 0.03 | 1.24 | 0.03 | 83 | 1010.8 |
| 20260507062959 | 11 | 20 | 0.0 | 3.2 | 0.03 | 1.24 | 0.03 | 83 | 1010.8 |
| 20260507062242 | 11 | 311 | 0.0 | 3.2 | 0.00 | 1.22 | 0.00 | 82 | 1010.8 |
| 20260507061742 | 11 | 328 | 0.0 | 1.6 | 0.00 | 1.22 | 0.00 | 85 | 1010.8 |
| 20260507061242 | 11 | 14 | 0.0 | 4.8 | 0.00 | 1.22 | 0.00 | 84 | 1010.7 |
| 20260507060742 | 11 | 13 | 0.0 | 4.8 | 0.00 | 1.22 | 0.00 | 85 | 1010.8 |
| 20260507060241 | 11 | 1 | 0.0 | 1.6 | 0.00 | 1.22 | 0.00 | 85 | 1010.8 |
| 20260507055741 | 11 | 25 | 0.0 | 0.0 | 0.00 | 1.22 | 0.00 | 86 | 1010.7 |
| 20260507055241 | 11 | 12 | 0.0 | 4.8 | 0.00 | 1.22 | 0.00 | 86 | 1010.6 |
| 20260507054742 | 11 | 329 | 0.0 | 4.8 | 0.00 | 1.22 | 0.00 | 85 | 1010.4 |
| 20260507054242 | 11 | 329 | 0.0 | 1.6 | 0.00 | 1.22 | 0.00 | 87 | 1010.6 |
| 20260507054007 | 11 | 290 | 1.6 | 1.6 | 0.00 | 1.22 | 0.00 | 87 | 1010.5 |
| 20260507053242 | 11 | 4 | 0.0 | 3.2 | 0.00 | 1.22 | 0.00 | 87 | 1010.3 |
| 20260507053230 | 11 | 19 | 0.0 | 3.2 | 0.00 | 1.22 | 0.00 | 87 | 1010.6 |
| 20260507052242 | 11 | 14 | 0.0 | 1.6 | 0.00 | 1.22 | 0.00 | 87 | 1010.3 |
| 20260507051742 | 11 | 5 | 0.0 | 1.6 | 0.00 | 1.22 | 0.00 | 87 | 1010.5 |
| 20260507051242 | 11 | 3 | 0.0 | 1.6 | 0.00 | 1.22 | 0.00 | 88 | 1011.0 |
| 20260507050741 | 11 | 13 | 0.0 | 1.6 | 0.00 | 1.22 | 0.00 | 88 | 1010.7 |
| 20260507050242 | 11 | 2 | 0.0 | 4.8 | 0.00 | 1.22 | 0.00 | 89 | 1010.4 |
| 20260507050000 | 11 | 4 | 0.0 | 4.8 | 0.00 | 1.22 | 0.00 | 89 | 1010.6 |
| 20260507045242 | 11 | 14 | 0.0 | 3.2 | 0.00 | 1.22 | 0.00 | 90 | 1010.7 |
| 20260507044742 | 11 | 318 | 1.6 | 4.8 | 0.00 | 1.22 | 0.00 | 89 | 1010.7 |
| 20260507044242 | 11 | 14 | 1.6 | 4.8 | 0.00 | 1.22 | 0.00 | 89 | 1010.7 |
| 20260507043742 | 11 | 17 | 0.0 | 1.6 | 0.00 | 1.22 | 0.00 | 90 | 1010.9 |
| 20260507043242 | 11 | 18 | 0.0 | 3.2 | 0.00 | 1.22 | 0.00 | 89 | 1010.7 |
| 20260507042741 | 11 | 324 | 0.0 | 3.2 | 0.00 | 1.22 | 0.00 | 89 | 1010.6 |
| 20260507042242 | 12 | 20 | 0.0 | 3.2 | 0.00 | 1.22 | 0.00 | 87 | 1010.6 |
| 20260507042008 | 12 | 322 | 1.6 | 3.2 | 0.00 | 1.22 | 0.00 | 87 | 1010.5 |
| 20260507041241 | 12 | 14 | 0.0 | 3.2 | 0.00 | 1.22 | 0.00 | 87 | 1010.6 |
| 20260507040741 | 12 | 315 | 1.6 | 6.4 | 0.00 | 1.22 | 0.00 | 87 | 1010.7 |
| 20260507040242 | 12 | 15 | 1.6 | 6.4 | 0.00 | 1.22 | 0.00 | 86 | 1010.9 |
| 20260507035742 | 12 | 312 | 1.6 | 3.2 | 0.00 | 1.22 | 1.22 | 86 | 1010.6 |
| 20260507035241 | 12 | 302 | 0.0 | 4.8 | 0.00 | 1.22 | 1.22 | 85 | 1010.7 |
| 20260507034741 | 12 | 1 | 0.0 | 4.8 | 0.00 | 1.22 | 1.22 | 85 | 1010.4 |
| 20260507034241 | 12 | 297 | 1.6 | 4.8 | 0.00 | 1.22 | 1.22 | 85 | 1010.7 |
| 20260507033741 | 12 | 334 | 0.0 | 3.2 | 0.00 | 1.22 | 1.22 | 85 | 1010.3 |
| 20260507033504 | 12 | 289 | 0.0 | 3.2 | 0.00 | 1.22 | 1.22 | 86 | 1010.6 |
| 20260507032742 | 12 | 285 | 3.2 | 3.2 | 0.00 | 1.22 | 1.22 | 85 | 1010.3 |
| 20260507032242 | 12 | 4 | 0.0 | 3.2 | 0.00 | 1.22 | 1.22 | 86 | 1010.1 |
| 20260507031742 | 12 | 19 | 0.0 | 3.2 | 0.00 | 1.22 | 1.22 | 85 | 1010.0 |
| 20260507031242 | 12 | 7 | 0.0 | 1.6 | 0.00 | 1.22 | 1.22 | 86 | 1010.1 |
| 20260507030742 | 12 | 11 | 0.0 | 4.8 | 0.00 | 1.22 | 1.22 | 85 | 1010.4 |
| 20260507030242 | 12 | 318 | 0.0 | 4.8 | 0.00 | 1.22 | 1.22 | 86 | 1010.1 |
| 20260507025741 | 12 | 324 | 0.0 | 6.4 | 0.00 | 1.22 | 1.22 | 86 | 1010.3 |
| 20260507025242 | 13 | 20 | 0.0 | 6.4 | 0.00 | 1.22 | 1.22 | 86 | 1010.3 |
| 20260507024742 | 13 | 316 | 0.0 | 4.8 | 0.00 | 1.22 | 1.22 | 86 | 1010.2 |
| 20260507024242 | 13 | 283 | 3.2 | 3.2 | 0.00 | 1.22 | 1.22 | 86 | 1010.3 |
| 20260507023742 | 13 | 13 | 0.0 | 6.4 | 0.00 | 1.22 | 1.22 | 86 | 1010.2 |
| 20260507023242 | 13 | 20 | 0.0 | 6.4 | 0.00 | 1.22 | 1.22 | 85 | 1010.3 |
| 20260507023006 | 13 | 308 | 0.0 | 4.8 | 0.00 | 1.22 | 1.22 | 86 | 1010.3 |
| 20260507022241 | 13 | 3 | 1.6 | 4.8 | 0.00 | 1.22 | 1.22 | 86 | 1010.2 |
| 20260507021741 | 13 | 314 | 1.6 | 4.8 | 0.00 | 1.22 | 1.22 | 86 | 1010.0 |
| 20260507021241 | 13 | 318 | 1.6 | 3.2 | 0.00 | 1.22 | 1.22 | 86 | 1009.8 |
| 20260507020742 | 13 | 321 | 0.0 | 1.6 | 0.00 | 1.22 | 1.22 | 86 | 1010.0 |
| 20260507020241 | 14 | 20 | 0.0 | 3.2 | 0.00 | 1.22 | 1.22 | 85 | 1010.0 |
| 20260507015741 | 14 | 331 | 0.0 | 3.2 | 0.00 | 1.22 | 1.22 | 84 | 1010.0 |
| 20260507015241 | 14 | 316 | 0.0 | 3.2 | 0.00 | 1.22 | 1.22 | 85 | 1009.9 |
| 20260507014742 | 14 | 295 | 1.6 | 3.2 | 0.00 | 1.22 | 1.22 | 85 | 1010.0 |
| 20260507014242 | 14 | 283 | 0.0 | 3.2 | 0.00 | 1.22 | 1.22 | 85 | 1010.2 |
| 20260507013742 | 14 | 300 | 1.6 | 3.2 | 0.00 | 1.22 | 1.22 | 85 | 1010.3 |
| 20260507013241 | 14 | 331 | 0.0 | 4.8 | 0.00 | 1.22 | 1.22 | 86 | 1010.1 |
| 20260507012959 | 14 | 330 | 0.0 | 6.4 | 0.00 | 1.22 | 1.22 | 85 | 1010.0 |
| 20260507012241 | 14 | 325 | 0.0 | 6.4 | 0.00 | 1.22 | 1.22 | 85 | 1010.2 |
| 20260507011741 | 14 | 312 | 0.0 | 3.2 | 0.00 | 1.22 | 1.22 | 85 | 1009.9 |
| 20260507011722 | 14 | 304 | 1.6 | 3.2 | 0.00 | 1.22 | 1.22 | 86 | 1010.1 |
| 20260507010741 | 15 | 304 | 0.0 | 3.2 | 0.00 | 1.22 | 1.22 | 85 | 1009.8 |
| 20260507010241 | 15 | 306 | 0.0 | 3.2 | 0.00 | 1.22 | 1.22 | 85 | 1009.6 |
| 20260507005730 | 15 | 324 | 3.2 | 3.2 | 0.00 | 1.22 | 1.22 | 85 | 1009.7 |
| 20260507005230 | 15 | 324 | 1.6 | 3.2 | 0.00 | 1.22 | 1.22 | 86 | 1009.7 |
| 20260507004730 | 15 | 320 | 1.6 | 4.8 | 0.00 | 1.22 | 1.22 | 86 | 1009.5 |
| 20260507004230 | 15 | 326 | 3.2 | 4.8 | 0.00 | 1.22 | 1.22 | 84 | 1009.5 |
| 20260507004209 | 15 | 329 | 0.0 | 1.6 | 0.00 | 1.22 | 1.22 | 87 | 1009.4 |
| 20260507003230 | 15 | 305 | 0.0 | 1.6 | 0.00 | 1.22 | 1.22 | 86 | 1009.3 |
| 20260507002730 | 15 | 319 | 1.6 | 1.6 | 0.00 | 1.22 | 1.22 | 86 | 1009.0 |
| 20260507002217 | 15 | 20 | 0.0 | 3.2 | 0.00 | 1.22 | 1.22 | 87 | 1009.0 |
| 20260507001716 | 15 | 4 | 0.0 | 4.8 | 0.00 | 1.22 | 1.22 | 87 | 1009.2 |
| 20260507001217 | 15 | 324 | 0.0 | 6.4 | 0.00 | 1.22 | 1.22 | 88 | 1009.0 |
| 20260507000704 | 15 | 308 | 4.8 | 6.4 | 0.00 | 1.22 | 1.22 | 87 | 1008.8 |
| 20260507000648 | 15 | 330 | 0.0 | 3.2 | 0.00 | 1.22 | 1.22 | 88 | 1008.7 |
| 20260506235705 | 15 | 320 | 1.6 | 3.2 | 0.00 | 1.22 | 1.22 | 91 | 1008.5 |
| 20260506235152 | 15 | 15 | 0.0 | 0.0 | 0.00 | 1.22 | 1.22 | 92 | 1008.5 |
| 20260506234653 | 15 | 18 | 0.0 | 3.2 | 0.00 | 1.22 | 1.22 | 91 | 1008.4 |
| 20260506234152 | 15 | 19 | 1.6 | 4.8 | 0.00 | 1.22 | 1.22 | 91 | 1008.2 |
| 20260506233902 | 15 | 13 | 0.0 | 4.8 | 0.00 | 1.22 | 1.22 | 92 | 1007.9 |
| 20260506233141 | 15 | 329 | 0.0 | 3.2 | 0.00 | 1.22 | 1.22 | 93 | 1007.8 |
| 20260506232641 | 16 | 20 | 0.0 | 4.8 | 0.00 | 1.22 | 1.22 | 94 | 1008.0 |
| 20260506232141 | 16 | 14 | 1.6 | 4.8 | 0.03 | 1.22 | 1.22 | 93 | 1007.8 |
| 20260506231641 | 16 | 332 | 0.0 | 9.7 | 0.08 | 1.22 | 1.22 | 93 | 1007.9 |
| 20260506231141 | 16 | 321 | 0.0 | 9.7 | 0.08 | 1.22 | 1.22 | 93 | 1007.9 |
| 20260506230641 | 16 | 24 | 0.0 | 9.7 | 0.08 | 1.22 | 1.22 | 94 | 1007.8 |
| 20260506230141 | 16 | 322 | 0.0 | 6.4 | 0.08 | 1.22 | 1.22 | 95 | 1007.9 |
| 20260506225641 | 17 | 25 | 1.6 | 4.8 | 0.08 | 1.22 | 1.22 | 96 | 1007.7 |
| 20260506225141 | 17 | 324 | 0.0 | 1.6 | 0.08 | 1.22 | 1.22 | 96 | 1007.8 |
| 20260506224641 | 17 | 331 | 0.0 | 0.0 | 0.08 | 1.22 | 1.22 | 96 | 1007.8 |
| 20260506224353 | 17 | 330 | 0.0 | 1.6 | 0.08 | 1.22 | 1.22 | 96 | 1007.4 |
| 20260506224236 | 17 | 332 | 0.0 | 1.6 | 0.08 | 1.22 | 1.22 | 96 | 1007.6 |
| 20260506223141 | 17 | 314 | 0.0 | 3.2 | 0.08 | 1.22 | 1.22 | 96 | 1007.5 |
| 20260506222905 | 17 | 9 | 0.0 | 3.2 | 0.08 | 1.22 | 1.22 | 95 | 1007.5 |
| 20260506222140 | 17 | 10 | 0.0 | 3.2 | 0.05 | 1.19 | 1.19 | 92 | 1007.4 |
| 20260506221641 | 18 | 321 | 0.0 | 3.2 | 0.00 | 1.14 | 1.14 | 90 | 1007.2 |
| 20260506221141 | 18 | 274 | 0.0 | 3.2 | 0.00 | 1.14 | 1.14 | 90 | 1007.4 |
| 20260506220641 | 18 | 334 | 1.6 | 4.8 | 0.00 | 1.14 | 1.14 | 89 | 1007.0 |
| 20260506220128 | 18 | 12 | 0.0 | 4.8 | 0.00 | 1.14 | 1.14 | 89 | 1007.0 |
| 20260506215628 | 18 | 334 | 0.0 | 3.2 | 0.00 | 1.14 | 1.14 | 87 | 1007.0 |
| 20260506215128 | 18 | 332 | 0.0 | 3.2 | 0.00 | 1.14 | 1.14 | 87 | 1006.8 |
| 20260506214628 | 18 | 261 | 0.0 | 3.2 | 0.00 | 1.14 | 1.14 | 87 | 1007.1 |
| 20260506214128 | 18 | 307 | 0.0 | 4.8 | 0.00 | 1.14 | 1.14 | 87 | 1006.9 |
| 20260506213628 | 18 | 278 | 1.6 | 4.8 | 0.00 | 1.14 | 1.14 | 86 | 1006.8 |
| 20260506213129 | 19 | 22 | 0.0 | 3.2 | 0.00 | 1.14 | 1.14 | 85 | 1006.4 |
| 20260506212617 | 19 | 317 | 0.0 | 3.2 | 0.00 | 1.14 | 1.14 | 84 | 1006.4 |
| 20260506212117 | 19 | 296 | 0.0 | 1.6 | 0.00 | 1.14 | 1.14 | 85 | 1006.4 |
| 20260506211617 | 19 | 293 | 0.0 | 3.2 | 0.00 | 1.14 | 1.14 | 84 | 1006.7 |
| 20260506211105 | 19 | 235 | 0.0 | 4.8 | 0.00 | 1.14 | 1.14 | 84 | 1006.1 |
| 20260506210605 | 19 | 268 | 1.6 | 4.8 | 0.00 | 1.14 | 1.14 | 83 | 1006.6 |
| 20260506210105 | 19 | 189 | 1.6 | 4.8 | 0.00 | 1.14 | 1.14 | 85 | 1006.4 |
| 20260506205553 | 19 | 183 | 0.0 | 4.8 | 0.00 | 1.14 | 1.14 | 85 | 1006.4 |
| 20260506205053 | 19 | 8 | 0.0 | 3.2 | 0.00 | 1.14 | 1.14 | 85 | 1006.4 |
| 20260506204821 | 19 | 280 | 1.6 | 4.8 | 0.00 | 1.14 | 1.14 | 84 | 1006.3 |
| 20260506204041 | 19 | 7 | 0.0 | 4.8 | 0.00 | 1.14 | 1.14 | 84 | 1006.6 |
| 20260506203757 | 19 | 4 | 0.0 | 3.2 | 0.00 | 1.14 | 1.14 | 84 | 1006.3 |
| 20260506203040 | 19 | 329 | 0.0 | 3.2 | 0.00 | 1.14 | 1.14 | 86 | 1006.4 |
| 20260506202541 | 19 | 305 | 0.0 | 3.2 | 0.00 | 1.14 | 1.14 | 85 | 1006.2 |
| 20260506202041 | 19 | 332 | 0.0 | 3.2 | 0.00 | 1.14 | 1.14 | 85 | 1006.3 |
| 20260506201541 | 19 | 292 | 0.0 | 3.2 | 0.00 | 1.14 | 1.14 | 86 | 1006.6 |
| 20260506201041 | 18 | 287 | 0.0 | 4.8 | 0.00 | 1.14 | 1.14 | 85 | 1006.4 |
| 20260506200541 | 18 | 262 | 0.0 | 6.4 | 0.00 | 1.14 | 1.14 | 87 | 1006.4 |
| 20260506200041 | 18 | 313 | 0.0 | 6.4 | 0.00 | 1.14 | 1.14 | 86 | 1006.3 |
| 20260506195541 | 18 | 182 | 1.6 | 6.4 | 0.00 | 1.14 | 1.14 | 86 | 1006.2 |
| 20260506195040 | 18 | 1 | 0.0 | 6.4 | 0.00 | 1.14 | 1.14 | 86 | 1006.6 |
| 20260506194529 | 18 | 188 | 1.6 | 3.2 | 0.00 | 1.14 | 1.14 | 87 | 1006.7 |
| 20260506194029 | 18 | 297 | 0.0 | 4.8 | 0.00 | 1.14 | 1.14 | 88 | 1006.7 |
| 20260506193952 | 18 | 194 | 1.6 | 4.8 | 0.00 | 1.14 | 1.14 | 87 | 1006.7 |
| 20260506193446 | 18 | 316 | 0.0 | 3.2 | 0.00 | 1.14 | 1.14 | 89 | 1006.7 |
| 20260506192505 | 18 | 314 | 0.0 | 3.2 | 0.00 | 1.14 | 1.14 | 89 | 1006.6 |
| 20260506191952 | 18 | 22 | 0.0 | 3.2 | 0.00 | 1.14 | 1.14 | 90 | 1006.6 |
| 20260506191453 | 17 | 22 | 0.0 | 6.4 | 0.00 | 1.14 | 1.14 | 90 | 1006.6 |
| 20260506191219 | 17 | 332 | 1.6 | 6.4 | 0.00 | 1.14 | 1.14 | 90 | 1006.6 |
| 20260506190441 | 17 | 328 | 0.0 | 3.2 | 0.00 | 1.14 | 1.14 | 90 | 1006.8 |
| 20260506190200 | 17 | 59 | 0.0 | 3.2 | 0.00 | 1.14 | 1.14 | 91 | 1006.9 |
| 20260506185441 | 17 | 290 | 1.6 | 3.2 | 0.00 | 1.14 | 1.14 | 90 | 1006.9 |
| 20260506184941 | 17 | 262 | 0.0 | 9.7 | 0.00 | 1.14 | 1.14 | 90 | 1006.8 |
| 20260506184441 | 17 | 308 | 0.0 | 9.7 | 0.00 | 1.14 | 1.14 | 91 | 1007.0 |
| 20260506183941 | 17 | 312 | 0.0 | 4.8 | 0.00 | 1.14 | 1.14 | 92 | 1007.1 |
| 20260506183441 | 17 | 321 | 0.0 | 3.2 | 0.00 | 1.14 | 1.14 | 92 | 1007.3 |
| 20260506182928 | 17 | 290 | 1.6 | 6.4 | 0.00 | 1.14 | 1.14 | 92 | 1007.0 |
| 20260506182428 | 16 | 245 | 1.6 | 6.4 | 0.00 | 1.14 | 1.14 | 93 | 1007.2 |
| 20260506181928 | 16 | 2 | 0.0 | 4.8 | 0.00 | 1.14 | 1.14 | 94 | 1007.1 |
| 20260506181428 | 16 | 309 | 0.0 | 6.4 | 0.00 | 1.14 | 1.14 | 94 | 1007.2 |
| 20260506180929 | 16 | 265 | 0.0 | 6.4 | 0.00 | 1.14 | 1.14 | 93 | 1007.1 |
| 20260506180428 | 16 | 266 | 0.0 | 4.8 | 0.00 | 1.14 | 1.14 | 94 | 1007.1 |
| 20260506175929 | 16 | 306 | 0.0 | 6.4 | 0.00 | 1.14 | 1.14 | 94 | 1007.1 |
| 20260506175429 | 16 | 268 | 3.2 | 6.4 | 0.00 | 1.14 | 1.14 | 94 | 1007.1 |
| 20260506174929 | 16 | 282 | 0.0 | 4.8 | 0.00 | 1.14 | 1.14 | 95 | 1007.2 |
| 20260506174654 | 16 | 189 | 3.2 | 3.2 | 0.00 | 1.14 | 1.14 | 95 | 1007.2 |
| 20260506173929 | 16 | 284 | 0.0 | 4.8 | 0.00 | 1.14 | 1.14 | 95 | 1007.2 |
| 20260506173428 | 16 | 67 | 0.0 | 4.8 | 0.00 | 1.14 | 1.14 | 95 | 1007.0 |
| 20260506172929 | 16 | 324 | 0.0 | 4.8 | 0.00 | 1.14 | 1.14 | 95 | 1007.2 |
| 20260506172429 | 16 | 214 | 0.0 | 4.8 | 0.00 | 1.14 | 1.14 | 95 | 1007.2 |
| 20260506172148 | 16 | 279 | 0.0 | 4.8 | 0.00 | 1.14 | 1.14 | 96 | 1007.2 |
| 20260506171429 | 16 | 293 | 3.2 | 6.4 | 0.00 | 1.14 | 1.14 | 96 | 1007.1 |
| 20260506170928 | 16 | 167 | 0.0 | 3.2 | 0.00 | 1.14 | 1.14 | 97 | 1007.4 |
| 20260506170429 | 15 | 305 | 0.0 | 4.8 | 0.00 | 1.14 | 1.14 | 97 | 1007.4 |
| 20260506165929 | 15 | 189 | 1.6 | 9.7 | 0.00 | 1.14 | 1.14 | 97 | 1007.4 |
| 20260506165428 | 15 | 289 | 0.0 | 9.7 | 0.00 | 1.14 | 1.14 | 98 | 1007.3 |
| 20260506164928 | 15 | 316 | 0.0 | 1.6 | 0.00 | 1.14 | 1.14 | 98 | 1007.2 |
| 20260506164429 | 15 | 17 | 0.0 | 1.6 | 0.00 | 1.14 | 1.14 | 98 | 1007.3 |
| 20260506164156 | 15 | 66 | 0.0 | 3.2 | 0.00 | 1.14 | 1.14 | 98 | 1007.3 |
| 20260506163902 | 15 | 41 | 0.0 | 3.2 | 0.00 | 1.14 | 1.14 | 98 | 1007.2 |
| 20260506162916 | 15 | 76 | 0.0 | 1.6 | 0.00 | 1.14 | 1.14 | 98 | 1007.1 |
| 20260506162641 | 15 | 60 | 0.0 | 3.2 | 0.00 | 1.14 | 1.14 | 98 | 1007.3 |
| 20260506161904 | 15 | 240 | 0.0 | 3.2 | 0.00 | 1.14 | 1.14 | 98 | 1007.1 |
| 20260506161623 | 15 | 118 | 0.0 | 3.2 | 0.03 | 1.14 | 1.14 | 98 | 1007.2 |
| 20260506160903 | 15 | 224 | 0.0 | 3.2 | 0.05 | 1.14 | 1.14 | 98 | 1007.4 |
| 20260506160352 | 15 | 318 | 0.0 | 3.2 | 0.08 | 1.14 | 1.14 | 98 | 1007.2 |
| 20260506155852 | 15 | 10 | 0.0 | 3.2 | 0.10 | 1.14 | 1.14 | 98 | 1007.2 |
| 20260506155352 | 15 | 72 | 0.0 | 3.2 | 0.15 | 1.14 | 1.14 | 98 | 1007.6 |
| 20260506154840 | 15 | 299 | 0.0 | 3.2 | 0.18 | 1.14 | 1.14 | 98 | 1007.8 |
| 20260506154340 | 15 | 24 | 0.0 | 3.2 | 0.23 | 1.14 | 1.14 | 98 | 1007.6 |
| 20260506153840 | 15 | 279 | 0.0 | 3.2 | 0.25 | 1.14 | 1.14 | 98 | 1007.4 |
| 20260506153340 | 15 | 303 | 0.0 | 3.2 | 0.33 | 1.14 | 1.14 | 98 | 1007.5 |
| 20260506152840 | 15 | 241 | 0.0 | 3.2 | 0.46 | 1.14 | 1.14 | 98 | 1007.2 |
| 20260506152340 | 15 | 56 | 0.0 | 3.2 | 0.61 | 1.14 | 1.14 | 98 | 1007.4 |
| 20260506151839 | 15 | 145 | 0.0 | 3.2 | 0.71 | 1.14 | 1.14 | 98 | 1007.0 |
| 20260506151339 | 15 | 178 | 1.6 | 3.2 | 0.69 | 1.12 | 1.12 | 98 | 1007.2 |
| 20260506150840 | 15 | 197 | 0.0 | 3.2 | 0.66 | 1.09 | 1.09 | 98 | 1007.5 |
| 20260506150340 | 15 | 181 | 1.6 | 3.2 | 0.61 | 1.04 | 1.07 | 98 | 1007.5 |
| 20260506145840 | 15 | 169 | 3.2 | 3.2 | 0.64 | 1.04 | 1.04 | 98 | 1007.6 |
| 20260506145340 | 15 | 124 | 1.6 | 3.2 | 0.58 | 0.99 | 0.99 | 98 | 1007.6 |
| 20260506144840 | 15 | 282 | 0.0 | 1.6 | 0.61 | 0.97 | 0.97 | 98 | 1007.8 |
| 20260506144340 | 15 | 89 | 0.0 | 1.6 | 0.58 | 0.91 | 0.91 | 98 | 1008.1 |
| 20260506143839 | 15 | 322 | 0.0 | 3.2 | 0.58 | 0.89 | 0.89 | 97 | 1008.4 |
| 20260506143340 | 15 | 300 | 3.2 | 4.8 | 0.53 | 0.81 | 0.81 | 97 | 1008.2 |
| 20260506143108 | 15 | 67 | 0.0 | 4.8 | 0.43 | 0.69 | 0.71 | 97 | 1008.3 |
| 20260506142340 | 15 | 103 | 0.0 | 3.2 | 0.30 | 0.53 | 0.53 | 96 | 1008.3 |
| 20260506141840 | 15 | 279 | 0.0 | 3.2 | 0.25 | 0.43 | 0.43 | 96 | 1008.0 |
| 20260506141328 | 16 | 267 | 0.0 | 4.8 | 0.25 | 0.43 | 0.43 | 95 | 1008.0 |
| 20260506140828 | 16 | 250 | 0.0 | 6.4 | 0.25 | 0.43 | 0.43 | 96 | 1007.9 |
| 20260506140327 | 15 | 301 | 3.2 | 6.4 | 0.25 | 0.43 | 0.43 | 96 | 1007.7 |
| 20260506135827 | 15 | 195 | 1.6 | 1.6 | 0.23 | 0.41 | 0.41 | 96 | 1007.6 |
| 20260506135328 | 15 | 67 | 0.0 | 1.6 | 0.23 | 0.41 | 0.41 | 96 | 1007.7 |
| 20260506134827 | 15 | 44 | 0.0 | 1.6 | 0.20 | 0.36 | 0.36 | 95 | 1007.6 |
| 20260506134328 | 15 | 287 | 0.0 | 3.2 | 0.18 | 0.33 | 0.33 | 95 | 1007.5 |
| 20260506133815 | 15 | 200 | 1.6 | 3.2 | 0.18 | 0.30 | 0.30 | 95 | 1007.8 |
| 20260506133537 | 15 | 16 | 0.0 | 1.6 | 0.15 | 0.28 | 0.28 | 94 | 1008.0 |
| 20260506132816 | 16 | 307 | 0.0 | 3.2 | 0.13 | 0.25 | 0.25 | 94 | 1008.0 |
| 20260506132316 | 16 | 22 | 0.0 | 3.2 | 0.10 | 0.20 | 0.20 | 93 | 1007.9 |
| 20260506131816 | 16 | 108 | 0.0 | 4.8 | 0.08 | 0.18 | 0.18 | 92 | 1007.9 |
| 20260506131316 | 16 | 278 | 1.6 | 4.8 | 0.08 | 0.18 | 0.18 | 92 | 1007.7 |
| 20260506130816 | 16 | 99 | 0.0 | 1.6 | 0.10 | 0.18 | 0.18 | 92 | 1007.8 |
| 20260506130303 | 16 | 334 | 0.0 | 1.6 | 0.10 | 0.18 | 0.18 | 92 | 1007.7 |
| 20260506125803 | 16 | 3 | 0.0 | 1.6 | 0.13 | 0.18 | 0.18 | 92 | 1007.6 |
| 20260506125305 | 16 | 113 | 0.0 | 3.2 | 0.15 | 0.18 | 0.18 | 92 | 1007.5 |
| 20260506124751 | 16 | 44 | 0.0 | 3.2 | 0.13 | 0.15 | 0.15 | 91 | 1007.9 |
| 20260506124252 | 16 | 90 | 0.0 | 1.6 | 0.15 | 0.15 | 0.15 | 91 | 1007.7 |
| 20260506124008 | 16 | 40 | 0.0 | 1.6 | 0.13 | 0.13 | 0.13 | 91 | 1007.8 |
| 20260506123240 | 16 | 39 | 0.0 | 4.8 | 0.13 | 0.13 | 0.13 | 91 | 1008.1 |
| 20260506122740 | 16 | 11 | 0.0 | 4.8 | 0.13 | 0.13 | 0.13 | 90 | 1008.1 |
| 20260506122240 | 16 | 276 | 0.0 | 3.2 | 0.10 | 0.10 | 0.10 | 90 | 1008.0 |
| 20260506121739 | 16 | 23 | 0.0 | 6.4 | 0.10 | 0.10 | 0.10 | 89 | 1008.4 |
| 20260506121239 | 16 | 135 | 0.0 | 6.4 | 0.08 | 0.08 | 0.08 | 88 | 1008.2 |
| 20260506120739 | 16 | 59 | 0.0 | 6.4 | 0.08 | 0.08 | 0.08 | 88 | 1008.4 |
| 20260506120239 | 16 | 315 | 0.0 | 6.4 | 0.08 | 0.08 | 0.08 | 86 | 1008.6 |
| 20260506115729 | 16 | 22 | 0.0 | 1.6 | 0.05 | 0.05 | 0.05 | 85 | 1008.5 |
| 20260506115230 | 16 | 322 | 0.0 | 1.6 | 0.03 | 0.03 | 0.03 | 84 | 1008.2 |
| 20260506114730 | 17 | 273 | 0.0 | 3.2 | 0.00 | 0.00 | 0.03 | 82 | 1008.0 |
| 20260506114230 | 17 | 329 | 0.0 | 3.2 | 0.00 | 0.00 | 0.00 | 81 | 1008.0 |
| 20260506113730 | 17 | 5 | 0.0 | 4.8 | 0.00 | 0.00 | 0.00 | 81 | 1007.8 |
| 20260506113230 | 17 | 190 | 1.6 | 6.4 | 0.00 | 0.00 | 0.00 | 78 | 1007.6 |
| 20260506112730 | 17 | 319 | 1.6 | 6.4 | 0.00 | 0.00 | 0.00 | 76 | 1007.9 |
| 20260506112449 | 17 | 86 | 0.0 | 4.8 | 0.00 | 0.00 | 0.00 | 76 | 1007.9 |
| 20260506111730 | 18 | 307 | 0.0 | 6.4 | 0.00 | 0.00 | 0.00 | 75 | 1007.6 |
| 20260506111439 | 18 | 306 | 1.6 | 14.5 | 0.00 | 0.00 | 0.00 | 71 | 1007.6 |
| 20260506111323 | 18 | 105 | 0.0 | 6.4 | 0.00 | 0.00 | 0.00 | 74 | 1007.7 |
| 20260506110228 | 18 | 206 | 1.6 | 14.5 | 0.00 | 0.00 | 0.00 | 70 | 1007.4 |
| 20260506105729 | 18 | 173 | 3.2 | 6.4 | 0.00 | 0.00 | 0.00 | 69 | 1007.4 |
| 20260506105229 | 18 | 31 | 1.6 | 4.8 | 0.00 | 0.00 | 0.00 | 73 | 1007.6 |
| 20260506104729 | 18 | 312 | 0.0 | 4.8 | 0.00 | 0.00 | 0.00 | 69 | 1007.1 |
| 20260506104228 | 18 | 206 | 0.0 | 3.2 | 0.00 | 0.00 | 0.00 | 69 | 1007.2 |
| 20260506103950 | 18 | 222 | 0.0 | 1.6 | 0.00 | 0.00 | 0.00 | 71 | 1007.2 |
| 20260506103229 | 18 | 72 | 0.0 | 1.6 | 0.00 | 0.00 | 0.00 | 70 | 1007.4 |
| 20260506102728 | 18 | 49 | 0.0 | 1.6 | 0.00 | 0.00 | 0.00 | 70 | 1007.1 |
| 20260506102228 | 18 | 314 | 0.0 | 3.2 | 0.00 | 0.00 | 0.00 | 68 | 1007.3 |
| 20260506101729 | 18 | 24 | 0.0 | 3.2 | 0.00 | 0.00 | 0.00 | 68 | 1007.1 |
| 20260506101229 | 18 | 54 | 0.0 | 1.6 | 0.00 | 0.00 | 0.00 | 68 | 1006.9 |
| 20260506100728 | 18 | 47 | 0.0 | 3.2 | 0.00 | 0.00 | 0.00 | 68 | 1007.0 |
| 20260506100228 | 19 | 90 | 0.0 | 3.2 | 0.00 | 0.00 | 0.00 | 66 | 1007.0 |
| 20260506095728 | 19 | 112 | 0.0 | 1.6 | 0.00 | 0.00 | 0.00 | 65 | 1006.8 |
| 20260506095242 | 19 | 189 | 0.0 | 4.8 | 0.00 | 0.00 | 0.00 | 65 | 1006.8 |
| 20260506094742 | 19 | 214 | 3.2 | 4.8 | 0.00 | 0.00 | 0.00 | 65 | 1006.9 |
| 20260506094241 | 19 | 136 | 0.0 | 4.8 | 0.00 | 0.00 | 0.00 | 65 | 1006.7 |
| 20260506093741 | 19 | 131 | 1.6 | 3.2 | 0.00 | 0.00 | 0.00 | 63 | 1006.9 |
| 20260506093500 | 20 | 109 | 0.0 | 11.3 | 0.00 | 0.00 | 0.00 | 62 | 1006.8 |
| 20260506092741 | 20 | 131 | 1.6 | 11.3 | 0.00 | 0.00 | 0.00 | 61 | 1006.8 |
| 20260506092240 | 20 | 171 | 3.2 | 6.4 | 0.00 | 0.00 | 0.00 | 61 | 1006.8 |
| 20260506091725 | 20 | 160 | 1.6 | 6.4 | 0.00 | 0.00 | 0.00 | 61 | 1007.0 |
| 20260506091226 | 20 | 143 | 1.6 | 4.8 | 0.00 | 0.00 | 0.00 | 61 | 1007.1 |
| 20260506090726 | 20 | 135 | 0.0 | 6.4 | 0.00 | 0.00 | 0.00 | 61 | 1007.1 |
| 20260506090453 | 20 | 315 | 0.0 | 6.4 | 0.00 | 0.00 | 0.00 | 61 | 1007.4 |
| 20260506085726 | 20 | 309 | 0.0 | 4.8 | 0.00 | 0.00 | 0.00 | 61 | 1007.2 |
| 20260506085225 | 20 | 104 | 0.0 | 4.8 | 0.00 | 0.00 | 0.00 | 61 | 1007.0 |
| 20260506084726 | 20 | 89 | 1.6 | 4.8 | 0.00 | 0.00 | 0.00 | 60 | 1007.1 |
| 20260506084225 | 20 | 60 | 0.0 | 3.2 | 0.00 | 0.00 | 0.00 | 60 | 1007.1 |
| 20260506083726 | 20 | 137 | 0.0 | 3.2 | 0.00 | 0.00 | 0.00 | 60 | 1006.9 |
| 20260506083225 | 20 | 171 | 3.2 | 4.8 | 0.00 | 0.00 | 0.00 | 60 | 1007.1 |
| 20260506082725 | 20 | 127 | 0.0 | 4.8 | 0.00 | 0.00 | 0.00 | 59 | 1007.0 |
| 20260506082225 | 20 | 128 | 1.6 | 4.8 | 0.00 | 0.00 | 0.00 | 59 | 1007.1 |
| 20260506081726 | 20 | 176 | 0.0 | 3.2 | 0.00 | 0.00 | 0.00 | 59 | 1007.2 |
| 20260506081226 | 20 | 142 | 0.0 | 3.2 | 0.00 | 0.00 | 0.00 | 59 | 1007.1 |
| 20260506080947 | 20 | 136 | 1.6 | 4.8 | 0.00 | 0.00 | 0.00 | 59 | 1007.0 |
| 20260506080226 | 20 | 104 | 0.0 | 4.8 | 0.00 | 0.00 | 0.00 | 58 | 1007.2 |